User: anonymous   Login
Location: Newark
(40.3500°N, 15.2333°E)
Time: 12:33:59
(UTC+00:00)
Language:

METEOR M2 - Orbit

View from above orbital plane
View from above orbital plane
View from above satellite
View from above satellite

Ground track
Ground track

The orbit data is extracted from the following two-line orbital elements,

1 40069U 14037A   20049.10945926 -.00000044  00000-0 -87533-6 0  9997
2 40069  98.5202  91.0961 0004542 273.7972  86.2682 14.20669940291123
Epoch (UTC): 18 February 2020 02:37:37
Eccentricity: 0.0004542
inclination: 98.5202°
perigee height: 820 km
apogee height: 826 km
right ascension of ascending node: 91.0961°
argument of perigee: 273.7972°
revolutions per day: 14.20669940
mean anomaly at epoch: 86.2682°
orbit number at epoch: 29112

The dashed part of the orbit path shows where the satellite is in the earth's shadow,  

DLR